Location: Fort Worth, Tx
(32.7431°N, 97.3695°W)
Time: 02:00:50
(UTC-05:00)

Explorer 11/Cluster Stage 4 - Visible Passes

Search period start: 07 February 2026 00:00
Search period end: 17 February 2026 00:00
Orbit: 464 x 1178 km, 28.8° (Epoch: 6 February)

Date Brightness Start Highest point End Pass type
(mag) Time Alt. Az. Time Alt. Az. Time Alt. Az.
7 Feb 6.7 21:02:31 10° WSW 21:07:29 58° S 21:08:02 55° SSE visible
8 Feb 6.7 20:38:39 10° WSW 20:43:20 57° S 20:45:18 36° ESE visible
8 Feb 9.2 22:25:42 10° W 22:26:33 15° W 22:26:33 15° W visible
9 Feb 6.7 20:14:48 10° WSW 20:19:13 55° S 20:22:37 21° ESE visible
9 Feb 8.5 22:01:47 10° W 22:03:51 23° WSW 22:03:51 23° WSW visible
10 Feb 6.7 19:50:56 10° WSW 19:55:07 53° S 19:59:55 11° ESE visible
10 Feb 7.8 21:37:54 10° W 21:41:10 33° SW 21:41:10 33° SW visible
11 Feb 7.4 21:14:02 10° W 21:18:20 36° SSW 21:18:31 36° S visible
12 Feb 7.4 20:50:09 10° WSW 20:54:11 34° SSW 20:55:55 26° SSE visible
13 Feb 7.5 20:26:17 10° WSW 20:30:03 31° SSW 20:33:21 15° SE visible
14 Feb 7.5 20:02:24 10° WSW 20:05:55 29° SSW 20:10:01 10° SE visible
14 Feb 8.9 21:51:13 10° SW 21:52:08 12° SW 21:52:08 12° SW visible
15 Feb 7.6 19:38:31 10° WSW 19:41:49 27° SSW 19:45:34 10° SE visible
15 Feb 8.8 21:27:58 10° SW 21:28:55 11° SSW 21:29:43 10° SSW visible
